MQC9206 HKMO-FMCH

Flight info

Callsign MQC9206
Flight time 1h 21m
Altitude 32000
Route IMSIS2A UVUKO UL431 EGPET/N0478F310 UT913 KINAN DCT VABIT
Aircraft A306/H-SDE3FGHIRWY/LB1

Departure

Time 2026-04-28 08:40
Airport Moi International Airport (HKMO)

Arrival

Time 2026-04-28 10:01
Airport Prince Said Ibrahim International Airport (FMCH)
Time Latitude Longitude Altitude Speed Heading
2026-04-28 08:22 -4.02972 39.60114 211 ft 0 kts 209°
2026-04-28 08:35 -4.02975 39.60112 211 ft 2 kts 211°
2026-04-28 08:35 -4.02989 39.60103 211 ft 5 kts 210°
2026-04-28 08:35 -4.03014 39.60061 215 ft 11 kts 270°
2026-04-28 08:35 -4.02978 39.59976 217 ft 15 kts 298°
2026-04-28 08:36 -4.02878 39.59968 221 ft 20 kts 29°
2026-04-28 08:36 -4.02757 39.60036 222 ft 19 kts 30°
2026-04-28 08:36 -4.02646 39.60099 221 ft 18 kts 28°
2026-04-28 08:36 -4.02531 39.60163 219 ft 20 kts 31°
2026-04-28 08:37 -4.02405 39.60232 221 ft 22 kts 28°
2026-04-28 08:37 -4.02268 39.60308 220 ft 23 kts 29°
2026-04-28 08:37 -4.02122 39.60390 217 ft 25 kts 29°
2026-04-28 08:37 -4.01968 39.60477 222 ft 26 kts 29°
2026-04-28 08:38 -4.01806 39.60569 219 ft 27 kts 30°
2026-04-28 08:38 -4.01638 39.60666 216 ft 27 kts 29°
2026-04-28 08:38 -4.01471 39.60737 218 ft 25 kts
2026-04-28 08:38 -4.01334 39.60666 215 ft 20 kts 298°
2026-04-28 08:39 -4.01361 39.60617 211 ft 10 kts 212°
2026-04-28 08:39 -4.01470 39.60552 221 ft 32 kts 209°
2026-04-28 08:39 -4.01861 39.60335 215 ft 95 kts 208°
2026-04-28 08:39 -4.02606 39.59921 216 ft 148 kts 209°
2026-04-28 08:40 -4.03613 39.59351 450 ft 178 kts 210°
2026-04-28 08:40 -4.04743 39.58692 1060 ft 194 kts 208°
2026-04-28 08:40 -4.05903 39.58053 1945 ft 190 kts 207°
2026-04-28 08:40 -4.07123 39.57385 2301 ft 213 kts 207°
2026-04-28 08:41 -4.08501 39.56627 2568 ft 238 kts 207°
2026-04-28 08:41 -4.10010 39.55790 3096 ft 255 kts 209°
2026-04-28 08:41 -4.11557 39.54924 3960 ft 255 kts 208°
2026-04-28 08:41 -4.13108 39.54056 4859 ft 257 kts 207°
2026-04-28 08:42 -4.14682 39.53175 5674 ft 262 kts 207°
2026-04-28 08:42 -4.16285 39.52278 6446 ft 267 kts 207°
2026-04-28 08:42 -4.17909 39.51370 7388 ft 268 kts 208°
2026-04-28 08:42 -4.19561 39.50449 8188 ft 275 kts 208°
2026-04-28 08:43 -4.21238 39.49515 9133 ft 276 kts 208°
2026-04-28 08:43 -4.22901 39.48582 9920 ft 279 kts 209°
2026-04-28 08:43 -4.24698 39.47711 10490 ft 292 kts 198°
2026-04-28 08:43 -4.26774 39.47423 10738 ft 313 kts 180°
2026-04-28 08:44 -4.29015 39.47527 10973 ft 332 kts 177°
2026-04-28 08:44 -4.31376 39.47694 11205 ft 349 kts 176°
2026-04-28 08:44 -4.33847 39.47864 11427 ft 363 kts 176°
2026-04-28 08:44 -4.36417 39.48031 11653 ft 376 kts 177°
2026-04-28 08:45 -4.39056 39.48197 12022 ft 383 kts 177°
2026-04-28 08:45 -4.41708 39.48361 12406 ft 390 kts 177°
2026-04-28 08:45 -4.44463 39.48530 12873 ft 393 kts 176°
2026-04-28 08:45 -4.47168 39.48695 13324 ft 397 kts 177°
2026-04-28 08:46 -4.49938 39.48863 13777 ft 401 kts 177°
2026-04-28 08:46 -4.52737 39.49032 14170 ft 404 kts 177°
2026-04-28 08:46 -4.55552 39.49203 14587 ft 407 kts 177°
2026-04-28 08:46 -4.58391 39.49374 15001 ft 410 kts 176°
2026-04-28 08:47 -4.61243 39.49547 15415 ft 413 kts 176°
2026-04-28 08:47 -4.64124 39.49721 15813 ft 416 kts 176°
2026-04-28 08:47 -4.67024 39.49910 16185 ft 420 kts 174°
2026-04-28 08:47 -4.69898 39.50454 16597 ft 422 kts 163°
2026-04-28 08:48 -4.72641 39.51501 17047 ft 423 kts 156°
2026-04-28 08:48 -4.75335 39.52718 17462 ft 425 kts 155°
2026-04-28 08:48 -4.78028 39.53980 17799 ft 429 kts 155°
2026-04-28 08:48 -4.80729 39.55261 18177 ft 430 kts 154°
2026-04-28 08:49 -4.83438 39.56552 18453 ft 434 kts 154°
2026-04-28 08:49 -4.86171 39.57858 18771 ft 435 kts 154°
2026-04-28 08:49 -4.88906 39.59167 19089 ft 436 kts 154°
2026-04-28 08:49 -4.91649 39.60480 19367 ft 438 kts 154°
2026-04-28 08:50 -4.94406 39.61801 19638 ft 440 kts 154°
2026-04-28 08:50 -4.97173 39.63127 19908 ft 442 kts 154°
2026-04-28 08:50 -4.99950 39.64458 20201 ft 443 kts 154°
2026-04-28 08:50 -5.02734 39.65792 20482 ft 444 kts 154°
2026-04-28 08:51 -5.05528 39.67132 20734 ft 446 kts 154°
2026-04-28 08:51 -5.08331 39.68476 20977 ft 448 kts 154°
2026-04-28 08:51 -5.11111 39.69809 21214 ft 450 kts 154°
2026-04-28 08:51 -5.13936 39.71164 21465 ft 451 kts 154°
2026-04-28 08:52 -5.16775 39.72525 21710 ft 453 kts 154°
2026-04-28 08:52 -5.19620 39.73890 21925 ft 455 kts 154°
2026-04-28 08:52 -5.22479 39.75262 22162 ft 456 kts 154°
2026-04-28 08:52 -5.25348 39.76638 22383 ft 458 kts 154°
2026-04-28 08:53 -5.28228 39.78020 22610 ft 459 kts 154°
2026-04-28 08:53 -5.31111 39.79404 22864 ft 460 kts 154°
2026-04-28 08:53 -5.34008 39.80794 23059 ft 462 kts 154°
2026-04-28 08:53 -5.36916 39.82189 23214 ft 465 kts 154°
2026-04-28 08:54 -5.39837 39.83592 23406 ft 467 kts 154°
2026-04-28 08:54 -5.42772 39.85001 23590 ft 468 kts 154°
2026-04-28 08:54 -5.45712 39.86412 23781 ft 469 kts 154°
2026-04-28 08:54 -5.48652 39.87824 23952 ft 469 kts 154°
2026-04-28 08:55 -5.51598 39.89239 24143 ft 470 kts 154°
2026-04-28 08:55 -5.54549 39.90656 24311 ft 470 kts 154°
2026-04-28 08:55 -5.57500 39.92074 24519 ft 470 kts 154°
2026-04-28 08:55 -5.60442 39.93487 24749 ft 469 kts 154°
2026-04-28 08:56 -5.63388 39.94903 24891 ft 470 kts 154°
2026-04-28 08:56 -5.66345 39.96324 25034 ft 472 kts 154°
2026-04-28 08:56 -5.69309 39.97748 25198 ft 472 kts 154°
2026-04-28 08:56 -5.72275 39.99174 25393 ft 473 kts 154°
2026-04-28 08:57 -5.75249 40.00603 25485 ft 475 kts 154°
2026-04-28 08:57 -5.78222 40.02032 25692 ft 474 kts 154°
2026-04-28 08:57 -5.81205 40.03467 25829 ft 475 kts 154°
2026-04-28 08:57 -5.84178 40.04896 26028 ft 474 kts 154°
2026-04-28 08:58 -5.87168 40.06334 26131 ft 476 kts 154°
2026-04-28 08:58 -5.90148 40.07767 26345 ft 475 kts 154°
2026-04-28 08:58 -5.93126 40.09200 26569 ft 473 kts 154°
2026-04-28 08:58 -5.96098 40.10629 26649 ft 476 kts 154°
2026-04-28 08:59 -5.99099 40.12073 26658 ft 480 kts 154°
2026-04-28 08:59 -6.02104 40.13519 26882 ft 478 kts 154°
2026-04-28 08:59 -6.05105 40.14963 26968 ft 480 kts 154°
2026-04-28 08:59 -6.07103 40.15925 26958 ft 483 kts 154°
2026-04-28 09:00 -6.11158 40.17877 27212 ft 481 kts 154°
2026-04-28 09:00 -6.13153 40.18837 27378 ft 479 kts 154°
2026-04-28 09:00 -6.16151 40.20281 27583 ft 478 kts 154°
2026-04-28 09:00 -6.19158 40.21729 27718 ft 479 kts 154°
2026-04-28 09:01 -6.22153 40.23171 27959 ft 477 kts 154°
2026-04-28 09:01 -6.26162 40.25102 28205 ft 476 kts 154°
2026-04-28 09:01 -6.28137 40.26054 28302 ft 477 kts 154°
2026-04-28 09:02 -6.34143 40.28947 28592 ft 478 kts 154°
2026-04-28 09:02 -6.37142 40.30392 28762 ft 478 kts 154°
2026-04-28 09:02 -6.40144 40.31840 28946 ft 478 kts 154°
2026-04-28 09:02 -6.43132 40.33280 29245 ft 475 kts 154°
2026-04-28 09:03 -6.46110 40.34716 29517 ft 474 kts 154°
2026-04-28 09:03 -6.49085 40.36150 29697 ft 474 kts 154°
2026-04-28 09:03 -6.52053 40.37581 29952 ft 473 kts 154°
2026-04-28 09:03 -6.55017 40.39011 30161 ft 472 kts 154°
2026-04-28 09:04 -6.57977 40.40439 30319 ft 472 kts 154°
2026-04-28 09:04 -6.60942 40.41869 30481 ft 472 kts 154°
2026-04-28 09:04 -6.63899 40.43296 30694 ft 471 kts 154°
2026-04-28 09:04 -6.66855 40.44722 30867 ft 471 kts 155°
2026-04-28 09:05 -6.69810 40.46148 31036 ft 471 kts 155°
2026-04-28 09:05 -6.72766 40.47575 31218 ft 471 kts 155°
2026-04-28 09:05 -6.75682 40.48983 31429 ft 470 kts 155°
2026-04-28 09:05 -6.78630 40.50406 31617 ft 470 kts 155°
2026-04-28 09:06 -6.81574 40.51828 31826 ft 469 kts 155°
2026-04-28 09:06 -6.84516 40.53248 32039 ft 469 kts 155°
2026-04-28 09:06 -6.87451 40.54666 32250 ft 468 kts 155°
2026-04-28 09:06 -6.90385 40.56084 32453 ft 467 kts 155°
2026-04-28 09:07 -6.93317 40.57500 32658 ft 467 kts 155°
2026-04-28 09:07 -6.96242 40.58914 32832 ft 467 kts 155°
2026-04-28 09:07 -6.99171 40.60329 32913 ft 465 kts 155°
2026-04-28 09:08 -7.04944 40.63120 32921 ft 457 kts 155°
2026-04-28 09:08 -7.10663 40.65885 32920 ft 456 kts 155°
2026-04-28 09:09 -7.16383 40.68651 32927 ft 456 kts 155°
2026-04-28 09:09 -7.22103 40.71418 32925 ft 456 kts 155°
2026-04-28 09:10 -7.27831 40.74190 32919 ft 457 kts 155°
2026-04-28 09:10 -7.33560 40.76963 32920 ft 457 kts 155°
2026-04-28 09:11 -7.39291 40.79738 32922 ft 457 kts 155°
2026-04-28 09:11 -7.44981 40.82494 32922 ft 457 kts 155°
2026-04-28 09:12 -7.50710 40.85269 32922 ft 457 kts 155°
2026-04-28 09:12 -7.56436 40.88044 32921 ft 457 kts 155°
2026-04-28 09:13 -7.62167 40.90822 32924 ft 457 kts 155°
2026-04-28 09:13 -7.67896 40.93600 32921 ft 457 kts 155°
2026-04-28 09:14 -7.73628 40.96380 32919 ft 457 kts 155°
2026-04-28 09:14 -7.79352 40.99157 32919 ft 456 kts 155°
2026-04-28 09:15 -7.85073 41.01934 32920 ft 456 kts 155°
2026-04-28 09:15 -7.90791 41.04710 32921 ft 456 kts 155°
2026-04-28 09:16 -7.96512 41.07488 32923 ft 456 kts 155°
2026-04-28 09:16 -8.02228 41.10265 32921 ft 456 kts 155°
2026-04-28 09:17 -8.07940 41.13041 32919 ft 456 kts 155°
2026-04-28 09:17 -8.13649 41.15815 32919 ft 455 kts 155°
2026-04-28 09:18 -8.19352 41.18589 32923 ft 455 kts 155°
2026-04-28 09:18 -8.25059 41.21364 32922 ft 455 kts 155°
2026-04-28 09:19 -8.30759 41.24138 32917 ft 455 kts 155°
2026-04-28 09:19 -8.36461 41.26913 32921 ft 455 kts 155°
2026-04-28 09:20 -8.42168 41.29691 32922 ft 455 kts 155°
2026-04-28 09:20 -8.47830 41.32449 32922 ft 455 kts 155°
2026-04-28 09:21 -8.53572 41.35247 32922 ft 455 kts 155°
2026-04-28 09:21 -8.59274 41.38025 32920 ft 455 kts 155°
2026-04-28 09:22 -8.64978 41.40806 32920 ft 455 kts 155°
2026-04-28 09:22 -8.70675 41.43585 32922 ft 455 kts 155°
2026-04-28 09:23 -8.76374 41.46365 32919 ft 455 kts 155°
2026-04-28 09:23 -8.82039 41.49130 32921 ft 455 kts 155°
2026-04-28 09:24 -8.87740 41.51913 32914 ft 455 kts 155°
2026-04-28 09:24 -8.93439 41.54696 32918 ft 455 kts 155°
2026-04-28 09:25 -8.99141 41.57482 32919 ft 455 kts 155°
2026-04-28 09:25 -9.04839 41.60266 32920 ft 455 kts 155°
2026-04-28 09:26 -9.10541 41.63054 32917 ft 455 kts 155°
2026-04-28 09:26 -9.16243 41.65843 32917 ft 455 kts 155°
2026-04-28 09:27 -9.24790 41.70025 32918 ft 455 kts 155°
2026-04-28 09:27 -9.30488 41.72814 32920 ft 455 kts 155°
2026-04-28 09:28 -9.36182 41.75602 32915 ft 455 kts 154°
2026-04-28 09:28 -9.41889 41.78397 32917 ft 455 kts 154°
2026-04-28 09:29 -9.47589 41.81191 32916 ft 455 kts 154°
2026-04-28 09:29 -9.53288 41.83984 32918 ft 455 kts 154°
2026-04-28 09:30 -9.58985 41.86778 32915 ft 455 kts 154°
2026-04-28 09:30 -9.64643 41.89554 32917 ft 455 kts 154°
2026-04-28 09:31 -9.70377 41.92368 32912 ft 455 kts 154°
2026-04-28 09:31 -9.76074 41.95166 32915 ft 455 kts 154°
2026-04-28 09:32 -9.81767 41.97962 32917 ft 455 kts 154°
2026-04-28 09:32 -9.87423 42.00740 32918 ft 454 kts 154°
2026-04-28 09:33 -9.93105 42.03533 32915 ft 454 kts 154°
2026-04-28 09:33 -9.98786 42.06327 32914 ft 454 kts 154°
2026-04-28 09:34 -10.04469 42.09122 32916 ft 454 kts 154°
2026-04-28 09:34 -10.10150 42.11918 32913 ft 454 kts 153°
2026-04-28 09:35 -10.15827 42.14713 32915 ft 453 kts 153°
2026-04-28 09:35 -10.21500 42.17506 32916 ft 453 kts 153°
2026-04-28 09:36 -10.27169 42.20299 32913 ft 453 kts 153°
2026-04-28 09:36 -10.32837 42.23093 32913 ft 453 kts 153°
2026-04-28 09:37 -10.38503 42.25887 32909 ft 453 kts 153°
2026-04-28 09:37 -10.44146 42.28670 32540 ft 445 kts 153°
2026-04-28 09:38 -10.46934 42.30046 31668 ft 448 kts 153°
2026-04-28 09:38 -10.49752 42.31437 30923 ft 450 kts 153°
2026-04-28 09:38 -10.52561 42.32823 30317 ft 447 kts 153°
2026-04-28 09:38 -10.55349 42.34200 29680 ft 445 kts 153°
2026-04-28 09:39 -10.58122 42.35568 29062 ft 441 kts 153°
2026-04-28 09:39 -10.60868 42.36925 28456 ft 436 kts 153°
2026-04-28 09:39 -10.63581 42.38265 27880 ft 431 kts 153°
2026-04-28 09:39 -10.66271 42.39594 27308 ft 427 kts 153°
2026-04-28 09:40 -10.68927 42.40907 26733 ft 423 kts 153°
2026-04-28 09:40 -10.71560 42.42208 26181 ft 419 kts 153°
2026-04-28 09:40 -10.74071 42.43667 25605 ft 414 kts 143°
2026-04-28 09:40 -10.76226 42.45621 24707 ft 419 kts 134°
2026-04-28 09:41 -10.78202 42.47788 24089 ft 416 kts 132°
2026-04-28 09:41 -10.80141 42.49957 23553 ft 411 kts 132°
2026-04-28 09:41 -10.82057 42.52095 22925 ft 407 kts 132°
2026-04-28 09:41 -10.83953 42.54202 22378 ft 401 kts 133°
2026-04-28 09:42 -10.85828 42.56280 21846 ft 396 kts 133°
2026-04-28 09:42 -10.87684 42.58334 21321 ft 392 kts 133°
2026-04-28 09:42 -10.89522 42.60368 20796 ft 389 kts 133°
2026-04-28 09:42 -10.91349 42.62387 20268 ft 387 kts 133°
2026-04-28 09:43 -10.93165 42.64395 19736 ft 385 kts 133°
2026-04-28 09:43 -10.94976 42.66397 19197 ft 383 kts 133°
2026-04-28 09:43 -10.96755 42.68364 18681 ft 382 kts 133°
2026-04-28 09:43 -10.98576 42.70379 18120 ft 382 kts 133°
2026-04-28 09:44 -11.00350 42.72339 17521 ft 381 kts 133°
2026-04-28 09:44 -11.02136 42.74314 16994 ft 378 kts 133°
2026-04-28 09:44 -11.03905 42.76271 16479 ft 374 kts 133°
2026-04-28 09:44 -11.05665 42.78218 15923 ft 372 kts 133°
2026-04-28 09:45 -11.07411 42.80149 15405 ft 370 kts 133°
2026-04-28 09:45 -11.09146 42.82069 14873 ft 367 kts 132°
2026-04-28 09:45 -11.10869 42.83976 14347 ft 365 kts 132°
2026-04-28 09:45 -11.12580 42.85871 13826 ft 363 kts 131°
2026-04-28 09:46 -11.14281 42.87757 13259 ft 360 kts 132°
2026-04-28 09:46 -11.15968 42.89626 12746 ft 356 kts 132°
2026-04-28 09:46 -11.17633 42.91473 12210 ft 352 kts 132°
2026-04-28 09:46 -11.19284 42.93304 11681 ft 349 kts 133°
2026-04-28 09:47 -11.20391 42.94529 11340 ft 347 kts 133°
2026-04-28 09:47 -11.22010 42.96286 10853 ft 343 kts 136°
2026-04-28 09:47 -11.23957 42.97693 10494 ft 335 kts 155°
2026-04-28 09:47 -11.26124 42.98373 10426 ft 318 kts 167°
2026-04-28 09:48 -11.28246 42.98802 10313 ft 305 kts 169°
2026-04-28 09:48 -11.30269 42.99183 10142 ft 295 kts 169°
2026-04-28 09:48 -11.32296 42.99564 9741 ft 296 kts 170°
2026-04-28 09:48 -11.34296 42.99942 9366 ft 292 kts 169°
2026-04-28 09:49 -11.36294 43.00322 8998 ft 289 kts 169°
2026-04-28 09:49 -11.38277 43.00700 8522 ft 290 kts 169°
2026-04-28 09:49 -11.40242 43.01076 8266 ft 284 kts 169°
2026-04-28 09:49 -11.42188 43.01448 7738 ft 287 kts 169°
2026-04-28 09:50 -11.44145 43.01823 7440 ft 283 kts 169°
2026-04-28 09:50 -11.46075 43.02193 7042 ft 281 kts 169°
2026-04-28 09:50 -11.47999 43.02563 6711 ft 278 kts 169°
2026-04-28 09:50 -11.49881 43.02923 6220 ft 275 kts 169°
2026-04-28 09:51 -11.51747 43.03282 5679 ft 271 kts 169°
2026-04-28 09:51 -11.53592 43.03637 5269 ft 270 kts 169°
2026-04-28 09:51 -11.55431 43.03990 4909 ft 268 kts 169°
2026-04-28 09:51 -11.57257 43.04340 4627 ft 265 kts 169°
2026-04-28 09:52 -11.59054 43.04686 4578 ft 262 kts 169°
2026-04-28 09:52 -11.60839 43.05028 4570 ft 261 kts 169°
2026-04-28 09:52 -11.62638 43.05374 4573 ft 263 kts 169°
2026-04-28 09:52 -11.64442 43.05721 4576 ft 264 kts 169°
2026-04-28 09:53 -11.66241 43.06067 4576 ft 262 kts 169°
2026-04-28 09:53 -11.68030 43.06411 4574 ft 261 kts 169°
2026-04-28 09:53 -11.69819 43.06754 4579 ft 262 kts 169°
2026-04-28 09:53 -11.71607 43.07099 4578 ft 261 kts 169°
2026-04-28 09:54 -11.73362 43.07537 4569 ft 260 kts 158°
2026-04-28 09:54 -11.74831 43.08597 4572 ft 263 kts 130°
2026-04-28 09:54 -11.75599 43.10282 4584 ft 265 kts 106°
2026-04-28 09:54 -11.75955 43.12131 4583 ft 267 kts 101°
2026-04-28 09:55 -11.76247 43.13956 4575 ft 253 kts 101°
2026-04-28 09:55 -11.76528 43.15697 4480 ft 243 kts 102°
2026-04-28 09:55 -11.76799 43.17343 4383 ft 227 kts 103°
2026-04-28 09:55 -11.77054 43.18862 4185 ft 215 kts 102°
2026-04-28 09:56 -11.77306 43.20378 3847 ft 213 kts 100°
2026-04-28 09:56 -11.77176 43.21883 3494 ft 218 kts 71°
2026-04-28 09:56 -11.76189 43.23003 3263 ft 222 kts 27°
2026-04-28 09:56 -11.74703 43.23406 3160 ft 219 kts
2026-04-28 09:57 -11.73230 43.23619 3033 ft 208 kts 10°
2026-04-28 09:57 -11.71832 43.23859 2972 ft 201 kts 10°
2026-04-28 09:57 -11.70454 43.24109 2967 ft 199 kts 11°
2026-04-28 09:57 -11.69118 43.24358 2858 ft 193 kts 11°
2026-04-28 09:58 -11.67809 43.24600 2631 ft 190 kts 11°
2026-04-28 09:58 -11.66508 43.24831 2351 ft 191 kts 11°
2026-04-28 09:58 -11.65200 43.25064 2093 ft 189 kts 11°
2026-04-28 09:58 -11.63922 43.25293 1887 ft 181 kts 11°
2026-04-28 09:59 -11.62706 43.25512 1662 ft 174 kts
2026-04-28 09:59 -11.61563 43.25718 1441 ft 159 kts
2026-04-28 09:59 -11.60491 43.25910 1259 ft 158 kts
2026-04-28 09:59 -11.59409 43.26101 1057 ft 158 kts
2026-04-28 10:00 -11.58343 43.26294 829 ft 154 kts
2026-04-28 10:00 -11.57289 43.26483 636 ft 153 kts
2026-04-28 10:00 -11.56247 43.26676 449 ft 150 kts 12°
2026-04-28 10:00 -11.55244 43.26889 258 ft 143 kts 11°
2026-04-28 10:01 -11.54277 43.27029 96 ft 137 kts 10°
2026-04-28 10:01 -11.53477 43.27162 87 ft 95 kts 14°
2026-04-28 10:01 -11.52994 43.27256 91 ft 47 kts
2026-04-28 10:01 -11.52767 43.27294 91 ft 30 kts
2026-04-28 10:02 -11.52568 43.27329 86 ft 28 kts
2026-04-28 10:02 -11.52387 43.27361 86 ft 25 kts
2026-04-28 10:02 -11.52220 43.27389 86 ft 22 kts
2026-04-28 10:02 -11.52118 43.27436 90 ft 4 kts 353°
2026-04-28 10:03 -11.52114 43.27423 88 ft 2 kts 268°
2026-04-28 10:03 -11.52130 43.27408 87 ft 5 kts 196°
2026-04-28 10:03 -11.52176 43.27399 86 ft 10 kts 195°
2026-04-28 10:03 -11.52267 43.27381 86 ft 15 kts 190°
2026-04-28 10:04 -11.52385 43.27359 87 ft 20 kts 189°
2026-04-28 10:04 -11.52547 43.27329 89 ft 27 kts 189°
2026-04-28 10:04 -11.52750 43.27292 91 ft 32 kts 189°
2026-04-28 10:04 -11.52967 43.27253 89 ft 30 kts 190°
2026-04-28 10:05 -11.53147 43.27219 89 ft 25 kts 191°
2026-04-28 10:05 -11.53312 43.27187 90 ft 23 kts 189°
2026-04-28 10:05 -11.53467 43.27159 86 ft 23 kts 190°
2026-04-28 10:05 -11.53619 43.27137 88 ft 19 kts 182°
2026-04-28 10:06 -11.53657 43.27184 87 ft 11 kts 102°
2026-04-28 10:06 -11.53679 43.27299 90 ft 19 kts 96°
2026-04-28 10:06 -11.53636 43.27366 89 ft 10 kts 14°
2026-04-28 10:06 -11.53547 43.27380 90 ft 15 kts
2026-04-28 10:07 -11.53449 43.27399 89 ft 14 kts 10°
2026-04-28 10:07 -11.53394 43.27433 89 ft 3 kts 84°
2026-04-28 10:07 -11.53395 43.27436 85 ft 1 kts 95°
2026-04-28 10:07 -11.53401 43.27454 85 ft 1 kts 123°
2026-04-28 10:08 -11.53414 43.27452 90 ft 3 kts 205°
2026-04-28 10:08 -11.53429 43.27442 87 ft 2 kts 215°
2026-04-28 10:08 -11.53440 43.27433 85 ft 2 kts 219°
2026-04-28 10:08 -11.53444 43.27429 85 ft 0 kts 219°